When you browse on this site, cookies collect data to enhance your experience and personalize the content and advertising you see.
Visit our Privacy Policy to learn more. By continuing to use the site, you agree to this use of cookies and data.
  • In Spain
  • List of Countries
  • For 7 days
  • Water Temperature
  • Weather Map
  • Weather Widgets
  • user-avatar
    Login

    Hourly Weather Gweru

    Today, 26 February, Wednesday

    Time Temperature Precipitation Wind Pressure Humidity
    00:00 +13°C° 0 mm 3 mps 644 mmHg 91%
    01:00 +13°C° 0 mm 3 mps 643 mmHg 92%
    02:00 +13°C° 0 mm 3 mps 644 mmHg 96%
    03:00 +13°C° 0 mm 3 mps 643 mmHg 95%
    04:00 +13°C° 0 mm 3 mps 643 mmHg 94%
    05:00 +12°C° 0 mm 3 mps 643 mmHg 93%
    06:00 +13°C° 0 mm 3 mps 643 mmHg 90%
    07:00 +14°C° 0 mm 3 mps 644 mmHg 87%
    08:00 +16°C° 0 mm 3 mps 644 mmHg 85%
    09:00 +19°C° 0 mm 3 mps 645 mmHg 74%
    10:00 +23°C° 0 mm 2 mps 645 mmHg 63%
    11:00 +25°C° 0 mm 2 mps 646 mmHg 51%
    12:00 +26°C° 0 mm 2 mps 646 mmHg 46%
    13:00 +28°C° 0 mm 2 mps 645 mmHg 40%
    14:00 +28°C° 0 mm 2 mps 645 mmHg 42%
    15:00 +27°C° 0 mm 2 mps 645 mmHg 44%
    16:00 +26°C° 0 mm 3 mps 644 mmHg 46%
    17:00 +26°C° 0 mm 4 mps 643 mmHg 47%
    18:00 +23°C° 0 mm 4 mps 643 mmHg 56%
    19:00 +20°C° 0 mm 4 mps 643 mmHg 64%
    20:00 +18°C° 0 mm 4 mps 643 mmHg 72%
    21:00 +18°C° 0 mm 3 mps 643 mmHg 78%
    22:00 +17°C° 0 mm 2 mps 643 mmHg 84%
    23:00 +16°C° 0 mm 2 mps 643 mmHg 91%

    Tomorrow, 27 February, Thursday

    Time Temperature Precipitation Wind Pressure Humidity
    00:00 +16°C° 0 mm 2 mps 643 mmHg 91%
    01:00 +15°C° 0 mm 2 mps 643 mmHg 91%
    02:00 +15°C° 0 mm 1 mps 643 mmHg 91%
    03:00 +15°C° 0 mm 1 mps 642 mmHg 93%
    04:00 +15°C° 0 mm 2 mps 642 mmHg 94%
    05:00 +14°C° 0 mm 2 mps 642 mmHg 95%
    06:00 +16°C° 0 mm 2 mps 643 mmHg 91%
    07:00 +18°C° 0 mm 2 mps 643 mmHg 87%
    08:00 +20°C° 0 mm 2 mps 644 mmHg 82%
    09:00 +23°C° 0 mm 2 mps 645 mmHg 71%
    10:00 +26°C° 0 mm 2 mps 646 mmHg 59%
    11:00 +28°C° 0 mm 1 mps 646 mmHg 47%
    12:00 +30°C° 0 mm 1 mps 646 mmHg 43%
    13:00 +31°C° 0 mm 1 mps 646 mmHg 39%
    14:00 +32°C° 0 mm 1 mps 645 mmHg 34%
    15:00 +31°C° 0 mm 1 mps 645 mmHg 37%
    16:00 +30°C° 0 mm 2 mps 644 mmHg 40%
    17:00 +28°C° 0 mm 2 mps 643 mmHg 43%
    18:00 +26°C° 0 mm 2 mps 643 mmHg 49%
    19:00 +24°C° 0 mm 2 mps 643 mmHg 55%
    20:00 +20°C° 0 mm 2 mps 643 mmHg 61%
    21:00 +20°C° 0 mm 2 mps 643 mmHg 66%
    22:00 +19°C° 0 mm 2 mps 643 mmHg 72%
    23:00 +18°C° 0 mm 2 mps 643 mmHg 77%

    Day after tomorrow, 28 February, Friday

    Time Temperature Precipitation Wind Pressure Humidity
    00:00 +18°C° 0 mm 2 mps 643 mmHg 78%
    01:00 +17°C° 0 mm 2 mps 643 mmHg 78%
    02:00 +17°C° 0 mm 2 mps 642 mmHg 78%
    03:00 +17°C° 0 mm 2 mps 642 mmHg 80%
    04:00 +16°C° 0 mm 2 mps 642 mmHg 82%
    05:00 +16°C° 0 mm 2 mps 642 mmHg 84%
    06:00 +19°C° 0 mm 1 mps 643 mmHg 79%
    07:00 +20°C° 0 mm 1 mps 644 mmHg 74%
    08:00 +22°C° 0 mm 1 mps 645 mmHg 69%
    09:00 +24°C° 0 mm 2 mps 645 mmHg 59%
    10:00 +26°C° 0 mm 2 mps 646 mmHg 50%
    11:00 +28°C° 0 mm 2 mps 646 mmHg 40%
    12:00 +29°C° 0 mm 3 mps 646 mmHg 38%
    13:00 +29°C° 0 mm 3 mps 645 mmHg 36%
    14:00 +30°C° 0 mm 4 mps 645 mmHg 34%
    15:00 +29°C° 0 mm 4 mps 644 mmHg 38%
    16:00 +28°C° 0 mm 4 mps 643 mmHg 41%
    17:00 +27°C° 0 mm 5 mps 643 mmHg 45%
    18:00 +25°C° 0 mm 5 mps 643 mmHg 53%
    19:00 +23°C° 0 mm 5 mps 643 mmHg 60%
    20:00 +21°C° 0 mm 5 mps 644 mmHg 68%
    21:00 +21°C° 0 mm 5 mps 644 mmHg 69%
    22:00 +20°C° 0 mm 5 mps 645 mmHg 69%
    23:00 +20°C° 0 mm 5 mps 645 mmHg 70%

    29 February, Saturday

    Time Temperature Precipitation Wind Pressure Humidity
    00:00 +19°C° 0 mm 5 mps 645 mmHg 75%
    01:00 +17°C° 0 mm 6 mps 644 mmHg 81%
    02:00 +17°C° 0 mm 6 mps 644 mmHg 86%
    03:00 +17°C° 0 mm 6 mps 644 mmHg 86%
    04:00 +17°C° 0 mm 7 mps 644 mmHg 86%
    05:00 +17°C° 0 mm 7 mps 644 mmHg 86%
    06:00 +17°C° 0.1 mm 6 mps 644 mmHg 86%
    07:00 +17°C° 0.1 mm 6 mps 645 mmHg 85%
    08:00 +19°C° 0.1 mm 6 mps 645 mmHg 85%
    09:00 +19°C° 0.2 mm 6 mps 645 mmHg 82%
    10:00 +20°C° 0.2 mm 6 mps 646 mmHg 79%
    11:00 +20°C° 0.2 mm 6 mps 646 mmHg 76%
    12:00 +21°C° 0.1 mm 6 mps 646 mmHg 73%
    13:00 +22°C° 0.1 mm 6 mps 645 mmHg 70%
    14:00 +23°C° 0.1 mm 6 mps 645 mmHg 67%
    15:00 +22°C° 0.1 mm 6 mps 645 mmHg 69%
    16:00 +21°C° 0.1 mm 6 mps 644 mmHg 71%
    17:00 +21°C° 0.1 mm 6 mps 644 mmHg 74%
    18:00 +19°C° 0 mm 6 mps 644 mmHg 78%
    19:00 +17°C° 0 mm 6 mps 644 mmHg 83%
    20:00 +16°C° 0 mm 6 mps 645 mmHg 88%
    21:00 +15°C° 0 mm 6 mps 645 mmHg 89%
    22:00 +15°C° 0 mm 6 mps 645 mmHg 90%
    23:00 +15°C° 0 mm 6 mps 645 mmHg 91%

    1 March, Sunday

    Time Temperature Precipitation Wind Pressure Humidity
    00:00 +15°C° 0 mm 6 mps 644 mmHg 90%
    01:00 +15°C° 0 mm 5 mps 644 mmHg 89%
    02:00 +15°C° 0 mm 5 mps 644 mmHg 89%
    03:00 +15°C° 0 mm 5 mps 644 mmHg 89%
    04:00 +15°C° 0 mm 5 mps 644 mmHg 89%
    05:00 +14°C° 0 mm 4 mps 644 mmHg 90%
    06:00 +15°C° 0 mm 4 mps 644 mmHg 88%
    07:00 +15°C° 0 mm 5 mps 644 mmHg 86%
    08:00 +16°C° 0 mm 5 mps 645 mmHg 84%
    09:00 +18°C° 0 mm 4 mps 645 mmHg 80%
    10:00 +19°C° 0 mm 4 mps 645 mmHg 76%
    11:00 +20°C° 0 mm 4 mps 645 mmHg 72%
    12:00 +21°C° 0 mm 3 mps 645 mmHg 65%
    13:00 +24°C° 0 mm 3 mps 644 mmHg 58%
    14:00 +26°C° 0 mm 2 mps 644 mmHg 51%
    15:00 +25°C° 0 mm 2 mps 644 mmHg 53%
    16:00 +25°C° 0 mm 3 mps 643 mmHg 56%
    17:00 +24°C° 0 mm 3 mps 643 mmHg 58%
    18:00 +21°C° 0 mm 3 mps 642 mmHg 67%
    19:00 +19°C° 0 mm 3 mps 642 mmHg 75%
    20:00 +17°C° 0 mm 3 mps 642 mmHg 83%
    21:00 +17°C° 0 mm 3 mps 642 mmHg 86%
    22:00 +16°C° 0 mm 3 mps 643 mmHg 89%
    23:00 +16°C° 0 mm 2 mps 643 mmHg 92%

    2 March, Monday

    Time Temperature Precipitation Wind Pressure Humidity
    00:00 +15°C° 0 mm 2 mps 642 mmHg 94%
    01:00 +15°C° 0 mm 1 mps 642 mmHg 95%
    02:00 +15°C° 0 mm 1 mps 642 mmHg 97%
    03:00 +15°C° 0 mm 1 mps 642 mmHg 96%
    04:00 +15°C° 0 mm 1 mps 642 mmHg 96%
    05:00 +14°C° 0 mm 1 mps 642 mmHg 95%
    06:00 +16°C° 0 mm 2 mps 642 mmHg 90%
    07:00 +18°C° 0 mm 2 mps 643 mmHg 84%
    08:00 +19°C° 0 mm 2 mps 644 mmHg 78%
    09:00 +21°C° 0.2 mm 2 mps 644 mmHg 71%
    10:00 +24°C° 0.2 mm 2 mps 645 mmHg 64%
    11:00 +26°C° 0.2 mm 2 mps 645 mmHg 57%
    12:00 +26°C° 0.8 mm 2 mps 644 mmHg 57%
    13:00 +26°C° 0.8 mm 2 mps 644 mmHg 57%
    14:00 +27°C° 0.8 mm 2 mps 643 mmHg 57%
    15:00 +26°C° 1 mm 2 mps 643 mmHg 60%
    16:00 +26°C° 1 mm 1 mps 643 mmHg 64%
    17:00 +25°C° 1 mm 1 mps 642 mmHg 67%
    18:00 +23°C° 0.5 mm 1 mps 642 mmHg 74%
    19:00 +22°C° 0.5 mm 1 mps 642 mmHg 80%
    20:00 +20°C° 0.5 mm 1 mps 642 mmHg 87%
    21:00 +20°C° 0.5 mm 1 mps 643 mmHg 88%
    22:00 +19°C° 0.5 mm 1 mps 643 mmHg 90%
    23:00 +19°C° 0.5 mm 1 mps 643 mmHg 92%
    Show more